Zurück zum Katalog

STARLINK-4317

AktivKommunikationSSO
NORAD 53058·PAYLOAD·🇺🇸 United States

Gestartet Jul 11, 2022 von Vandenberg Space Force Base

Loading…

Nächste Überflüge (nächste 24 Stunden)

TLE

AktuellSource: CelesTrak SupGP

Epoche: Sep 14, 2026, 21:16 UTC

1 53058C 22077R   26257.88659722  .00083779  00000+0  26009-2 0  2577
2 53058  97.2852  72.7647 0001641  94.8604  95.4886 15.33394218    12

Verfolge STARLINK-4317 in Echtzeit mit AllMySat

Download on the App Store